This is the latest recevied weather packets stored in our database for station/object EA3KZ-1. If no packets are shown the sender has not sent any weather packets the latest 10 day(s).
| Time | Temp. | Humidity | Pressure | Rain* | Wind** | Luminosity | Snow |
|---|---|---|---|---|---|---|---|
| 1787931362 | 28.89° C | 22% | 1012.9 hPa | 0 mm | - | - | - |
| 1787930759 | 28.89° C | 23% | 1012.8 hPa | 0 mm | - | - | - |
| 1787930157 | 28.89° C | 23% | 1012.9 hPa | 0 mm | - | - | - |
| 1787929554 | 29.44° C | 22% | 1012.8 hPa | 0 mm | - | - | - |
| 1787928952 | 28.89° C | 22% | 1012.8 hPa | 0 mm | - | - | - |
| 1787928349 | 28.89° C | 23% | 1012.8 hPa | 0 mm | - | - | - |
| 1787927746 | 29.44° C | 23% | 1013 hPa | 0 mm | - | - | - |
| 1787927144 | 28.33° C | 25% | 1013 hPa | 0 mm | - | - | - |
| 1787926541 | 28.89° C | 25% | 1013.3 hPa | 0 mm | - | - | - |
| 1787925938 | 28.33° C | 26% | 1013.5 hPa | 0 mm | - | - | - |
| 1787925336 | 28.33° C | 24% | 1013.6 hPa | 0 mm | - | - | - |
| 1787924733 | 28.33° C | 24% | 1013.7 hPa | 0 mm | - | - | - |
| 1787924131 | 27.78° C | 24% | 1013.8 hPa | 0 mm | - | - | - |
| 1787923528 | 27.78° C | 27% | 1013.8 hPa | 0 mm | - | - | - |
| 1787922926 | 27.78° C | 28% | 1014 hPa | 0 mm | - | - | - |
| 1787922323 | 27.22° C | 28% | 1014.2 hPa | 0 mm | - | - | - |
| 1787921720 | 27.22° C | 27% | 1014.1 hPa | 0 mm | - | - | - |
| 1787921118 | 27.22° C | 27% | 1014.1 hPa | 0 mm | - | - | - |
| 1787920515 | 27.22° C | 27% | 1014.1 hPa | 0 mm | - | - | - |
| 1787919973 | 27.22° C | 31% | 1014 hPa | 0 mm | - | - | - |
| 1787919370 | 26.67° C | 31% | 1014 hPa | 0 mm | - | - | - |
| 1787918767 | 26.11° C | 32% | 1013.9 hPa | 0 mm | - | - | - |
| 1787918165 | 26.67° C | 32% | 1014 hPa | 0 mm | - | - | - |
| 1787917562 | 26.11° C | 33% | 1014.1 hPa | 0 mm | - | - | - |
| 1787916960 | 26.11° C | 31% | 1014.1 hPa | 0 mm | - | - | - |
* Rain latest hour (hover to see other rain measurements)
** Current wind speed in m/s (hover to see current wind gust speed)